Regional Weather Roundup
Issued by NWS State College, PA

Home | Current Version | Previous Version | Graphics & Text | Print | Product List | Glossary Off
Versions: 1 2 3 4 5 6 7 8 9 10 11 12 13 14 15 16 17 18 19 20 21 22 23 24 25 26 27 28 29 30 31 32 33 34 35 36 37 38 39 40 41 42 43 44 45 46 47 48 49 50

000
ASUS41 KCTP 241903
RWRCTP

REGIONAL WEATHER ROUNDUP
NATIONAL WEATHER SERVICE STATE COLLEGE PA
300 PM EDT THU JUL 24 2014

Note: "fair" indicates few or no clouds below 12,000 feet with no
significant weather and/or obstructions to visibility.

* = STATION THAT DOES NOT REPORT PRECIPITATION /E.G. RAIN...SNOW...ETC/
    THUNDER OR FOG.

PAZ002>004-007>009-013>016-020>023-029>032-242000-
WESTERN PENNSYLVANIA

CITY           SKY/WX    TMP DP  RH WIND       PRES   REMARKS
ERIE           MOSUNNY   70  48  45 N9G16     30.07F
MEADVILLE      MOSUNNY   71  50  47 N10       30.06F
FRANKLIN*      PTSUNNY   70  50  49 N7        30.05F
NEW CASTLE       N/A     73  54  51 NE10      30.04F
BEAVER COUNTY  CLOUDY    70  52  52 N8        30.03F
BUTLER*        PTSUNNY   73  54  49 N8        30.04S
PITTSBURGH INT MOSUNNY   76  52  43 N12       30.01F
PITTSBURGH     PTSUNNY   72  52  49 VRB6      30.00F
INDIANA*       PTSUNNY   72  54  53 VRB5      30.04F
LATROBE        MOSUNNY   72  55  56 N12       30.00F
WASHINGTON CO* PTSUNNY   73  54  49 N12       30.02S
$$

PAZ004>006-010>012-017>019-024>028-033>037-041-042-045-046-049>053-242000-
CENTRAL PENNSYLVANIA

CITY           SKY/WX    TMP DP  RH WIND       PRES   REMARKS
BRADFORD       PTSUNNY   69  48  47 N14       30.04F
DUBOIS         CLOUDY    70  52  52 N7        30.01F
CLEARFIELD     PTSUNNY   72  51  47 N10       30.00F
JOHNSTOWN      PTSUNNY   69  51  52 N13       30.02S
ALTOONA        MOSUNNY   73  53  49 N9        29.99S
STATE COLLEGE  PTSUNNY   73  54  49 NE10      29.98F
WILLIAMSPORT   PTSUNNY   75  50  41 N9        29.94F
SELINSGROVE    PTSUNNY   77  56  48 N10       29.94F
FT INDIANTOWN  MOSUNNY   79  55  43 N8        29.91F
CAPITAL CITY   PTSUNNY   78  52  40 N8        29.91F
HARRISBURG     PTSUNNY   79  54  41 N8G18     29.90F
YORK           PTSUNNY   78  56  46 N10G20    29.92F
$$

PAZ038>040-043-044-047-048-054-055-060>062-067>071-242000-
EASTERN PENNSYLVANIA

CITY           SKY/WX    TMP DP  RH WIND       PRES   REMARKS
SCRANTON       CLOUDY    76  49  38 N10G20    29.93F
MOUNT POCONO   MOSUNNY   70  51  51 NW9G18    29.95S
ALLENTOWN      MOSUNNY   81  53  37 N8        29.89S
QUAKERTOWN*    MOCLDY    77  57  50 NE7       29.90F
READING        PTSUNNY   79  55  43 N12       29.89F
LANCASTER      PTSUNNY   77  56  48 N10       29.90F
COATESVILLE    CLEAR     77  55  47 N9        29.91F
POTTSTOWN      SUNNY     77  55  46 N8        29.90S
BLUE BELL      MOSUNNY   79  59  50 NW3       29.87F
DOYLESTOWN     PTSUNNY   78  58  49 N9G17     29.88S
WILLOW GROVE   NOT AVBL
NORTH PHILA    MOSUNNY   83  55  38 N13       29.88F
PHILADELPHIA   PTSUNNY   81  58  45 N13       29.87F
$$



USA.gov is the U.S. government's official web portal to all federal, state and local government web resources and services.